Location: Jackson
(42.2460°N, 84.4010°W)
Time: 18:10:46
(UTC-05:00)

BlueWalker 3 - Pass Details

Date: 18 January 2026
Orbit: 450 x 461 km, 53.2° (Epoch: 14 February)

Event Time Altitude Azimuth Distance (km) Brightness Sun altitude
Rises 20:20:46 0° 231° (SW) 2,444 6.1 -30.4°
Reaches altitude 10° 20:22:54 10° 232° (SW) 1,574 5.0 -30.8°
Enters shadow 20:23:05 11° 232° (SW) 1,496 4.9 -30.9°
